{"data":{"norad_id":47368,"intl_designator":"2021-005V","name":"STARLINK-2084","alt_names":[],"object_type":"PAYLOAD","status":"ACTIVE","operator":null,"country":"US","launch_date":"2021-01-20","launch_site_code":"AFETR","launch_vehicle":null,"mission":null,"orbit_class":"UNKNOWN","rcs_meters":null,"size_class":null,"mass_kg":null,"dimensions":null,"purposes":["comms"],"wikipedia_slug":null,"has_3d_model":false,"image_url":null,"decayed_at":null,"tle_current":{"epoch":"2026-09-19T15:52:14.201472Z","epoch_age_seconds":80288,"freshness":"FRESH","line1":"1 47368U 21005V   26262.66127548  .00000497  00000+0  27784-4 0  9994","line2":"2 47368  53.1606 239.8009 0001409  92.1081 268.0082 15.31696611312750","mean_motion":15.31696611,"eccentricity":0.0001409,"inclination_deg":53.1606,"raan_deg":239.8009,"arg_perigee_deg":92.1081,"mean_anomaly_deg":268.0082,"bstar":2.7784e-5,"rev_number":31275,"period_min":94.013395972709,"perigee_km":469.78508948486,"apogee_km":471.71510586899,"semimajor_km":6848.8870976769,"source":"CELESTRAK","updated_at":"2026-09-20T09:00:38.591122Z"}}}